FENGYUN 1C DEB, 31297

Orbit data source: Space-Track

FENGYUN 1C DEB, 31297 is space debris in SSO originally from a launch on Mon, 10 May 1999 UTC launched from the Taiyaun Space Center, China (TSC). Fengyun 1C debris stems from the Chinese weather satellite Fengyun-1C, which was intentionally destroyed by a Chinese anti-satellite missile in 2007. This event dramatically increased the amount of space debris, with thousands of trackable fragments posing hazards to satellites and human spaceflight. The Fengyun 1C debris cloud has become a focal point in discussions about space sustainability and the need for international regulations to prevent the creation of new debris.

Loading next visibility...
Identifier
31297, 1999-025BPF
Orbit
SSO
Country
Flag of CNCN / PRC
Related business
Manufacturer
Unknown
Mission
Spacecraft
Bus & Motor
Unknown
Mass
Unknown
Launch date (UTC)
1999-05-10 (27 years ago)
Launch vehicle
Unknown
Launch site
Taiyaun Space Center, China (TSC)
Object type
Payload
Rocket body
Debris
Shape & HBR
Unknown shape, 0.1 m
Radar Cross Section
Small (<0.1 m²)

Expand to show TLE details & history
Last TLE update: 13 hours ago

TLE from 13 hours ago
0 FENGYUN 1C DEB
1 31297U 99025BPF 26235.92644709  .00000818  00000-0  16814-3 0  9996
2 31297  98.9692  36.9311 0138138  70.1998  81.2275 14.57918223 30031
Epoch: 2026-08-23T22:14Z
TLE epoch observation values (Epoch: 2026-08-23T22:14:05.028Z)
Latitude
26.68629°
Longitude
-84.27958°
Altitude
689.593 km
Speed
7.521 km/s
True Right ascension
14h 45m 49s
True Declination
26° 32' 50"
Sunlit
Object was in daylight at epoch
Visualization orbit readout
Latitude
Unknown
Longitude
Unknown
Altitude
Unknown
Speed
Unknown
Apparent Right ascension
Unknown
Apparent Declination
Unknown
Sunlit
N/A
Visualization observer readout
Local Sidereal Time
01:54:43
Azimuth
Unknown
Elevation
Unknown
Doppler factor
Unknown
Orbital elements
Apogee altitude
794.759 km
Perigee altitude
599.289 km
Semi-major axis
7,075.161 km
Eccentricity
0.01381
Inclination
98.9692°
RAAN
36.9311°
Arg. of periapsis
70.1998°
True anomaly
82.79586°
Mean anomaly
81.2275°
Eccentric anomaly
82.01129°
Mean motion
3.64702 °/min
Orbital period
98.71 mins
BSTAR
0.00016814
Loading maneuver chart data...
Computing Atmospheric mass density...

Documentation

Showing up to 5 results
|